GFSSE_925_thetae_324.txt.gz
Theta_e
349 350 348 349 350 353 351 352 350 347 352 349 349 351 349 352 351 350 350 353 353 354 353 353 353 353 353 352 352 351 350 349 352 351 350 348 347 349 347 347 350 349 350
348 349 350 349 353 352 353 352 349 352 352 351 351 350 352 353 353 353 353 353 353 354 354 352 352 351 352 352 352 352 351 352 351 350 350 350 349 351 351 351 349 346 349
348 349 350 352 353 353 352 352 352 352 352 351 353 352 353 353 353 353 353 354 353 353 352 352 352 351 347 347 350 350 339 346 351 350 345 346 348 351 352 352 350 349 349
347 350 349 350 353 353 352 352 352 353 353 351 352 352 353 352 353 353 354 353 351 353 352 352 353 351 348 343 346 347 339 342 347 345 343 347 350 353 351 350 350 350 348
346 349 348 349 352 352 350 351 352 352 352 352 351 351 352 353 353 354 352 351 353 354 353 353 351 350 346 340 341 342 343 344 345 344 346 345 347 351 352 350 349 349 348
345 346 347 351 352 352 351 348 352 352 350 352 353 353 353 353 353 352 352 353 353 351 352 349 347 345 345 344 342 344 346 345 346 347 345 344 342 348 350 350 350 348 340
345 343 347 351 352 352 350 351 352 352 350 351 352 350 352 351 352 353 353 353 349 347 347 347 347 345 345 345 346 347 347 347 347 347 346 346 343 345 349 349 349 350 345
344 346 346 348 352 351 352 351 352 351 351 351 349 344 345 344 345 348 349 349 347 345 344 345 346 345 343 344 343 342 344 345 348 346 346 345 340 342 351 350 349 349 345
346 346 345 347 350 353 349 350 350 351 352 352 346 337 336 337 338 341 342 343 343 342 343 344 345 345 343 345 341 342 336 338 345 348 344 343 338 344 350 348 345 348 347
344 343 340 340 348 350 351 352 348 352 351 342 338 334 334 334 335 339 341 341 342 342 343 344 345 346 344 344 342 339 340 338 341 346 348 345 334 335 340 340 341 343 343
344 338 341 338 337 347 343 349 352 351 346 343 337 335 340 337 339 336 338 339 340 340 341 341 341 342 344 345 344 341 340 341 341 344 348 348 337 337 339 335 339 342 341
341 344 347 339 330 334 338 339 340 338 335 335 337 340 341 342 343 343 344 339 338 340 340 340 343 347 347 348 347 348 342 342 341 343 346 346 337 335 342 338 337 337 339
346 350 350 344 338 332 330 330 331 336 339 343 347 349 352 349 348 350 340 340 342 334 343 342 347 343 344 348 352 350 348 347 344 344 342 341 338 337 340 338 338 339 339
344 349 350 344 337 333 332 342 346 348 348 349 340 351 351 350 351 345 338 343 340 335 336 339 340 345 347 346 350 349 349 348 346 345 341 342 334 337 341 338 338 338 339
349 350 350 344 335 334 333 342 346 349 351 353 350 348 347 346 344 341 344 334 335 337 334 337 345 347 347 350 349 349 348 347 347 347 343 345 336 338 338 339 338 339 340
347 348 348 344 338 338 339 342 344 347 350 355 351 338 341 343 343 339 338 336 340 339 339 344 349 349 351 348 345 343 346 348 348 348 345 344 342 342 341 339 339 339 339
346 342 344 344 340 341 346 346 344 346 351 351 351 347 349 349 349 346 342 341 345 340 343 342 347 348 347 345 349 350 348 346 347 348 346 347 345 345 344 342 341 340 340
343 343 342 342 344 346 348 350 349 350 352 352 353 348 353 354 350 347 348 347 347 346 349 349 346 346 349 345 350 348 347 346 345 346 348 349 348 347 345 343 342 342 341
343 343 344 345 344 344 349 348 349 349 347 349 353 350 346 350 350 351 350 349 349 349 353 352 353 351 348 347 349 346 346 346 344 345 349 348 348 348 350 349 346 343 343
342 342 343 345 345 343 343 344 347 348 348 346 347 346 349 348 347 349 351 351 350 350 348 347 348 347 346 345 344 346 346 344 343 343 344 346 344 347 348 351 349 348 347
343 344 345 345 343 343 345 347 345 345 343 344 343 341 346 350 350 350 350 350 350 348 343 338 344 347 346 344 345 345 348 344 340 341 340 340 342 341 341 350 349 348 349
344 344 346 346 346 344 342 346 342 344 347 352 349 349 353 352 352 351 351 351 350 346 343 344 347 347 347 345 345 347 345 346 343 330 331 328 327 327 333 345 349 350 350
343 343 345 345 346 345 343 342 342 346 352 351 354 353 353 352 351 351 350 349 351 351 350 349 347 346 344 345 345 345 345 346 343 340 327 325 325 329 331 338 339 346 347
343 343 343 345 345 345 344 347 348 349 350 349 350 352 351 351 349 348 348 349 349 349 348 347 347 346 346 346 338 342 346 346 339 340 338 325 328 335 337 345 345 333 327
345 345 344 343 346 345 348 349 349 351 350 349 348 349 350 349 347 342 341 348 348 345 344 342 341 340 337 336 332 332 333 326 336 337 326 323 323 332 343 329 328 328 327
344 345 347 345 348 347 348 348 351 352 351 349 349 348 346 344 343 341 340 342 345 345 343 337 334 332 330 327 325 325 325 324 324 324 322 323 322 324 333 326 324 324 326

GFSSE_925_thetae_327.txt.gz
Theta_e
346 349 350 353 353 353 352 352 352 352 351 351 352 351 352 352 353 352 352 353 353 353 353 353 353 352 347 348 350 351 352 351 352 351 351 350 347 347 350 351 350 346 347
344 350 349 352 353 353 352 352 352 352 352 351 352 352 352 353 353 353 353 353 353 354 352 352 352 352 352 352 351 351 352 351 351 351 351 346 345 348 351 351 347 348 350
348 348 349 350 353 351 351 352 351 352 352 352 353 353 353 353 352 353 353 353 354 352 352 352 352 352 351 351 343 343 346 348 351 349 345 346 346 348 351 350 350 350 349
346 350 350 350 351 351 350 350 350 352 352 352 352 352 353 350 354 354 353 351 353 352 351 351 351 351 351 347 345 337 342 345 346 347 346 347 350 350 350 349 351 348 348
348 348 350 350 350 351 350 350 351 351 352 352 353 352 346 353 352 352 351 352 352 353 352 352 352 350 344 343 342 343 343 343 345 345 345 349 348 350 350 351 350 350 349
349 349 351 351 352 351 351 350 349 350 352 353 352 353 351 353 353 351 353 351 352 352 352 351 350 346 345 342 343 345 346 346 348 348 345 344 345 347 350 350 349 350 348
349 348 351 351 352 351 351 350 349 351 351 353 352 352 352 352 353 353 352 348 346 346 347 347 349 346 344 345 346 346 346 346 347 349 347 344 342 342 344 351 350 349 348
347 350 351 349 351 351 351 352 352 352 352 352 352 347 350 351 351 350 347 346 346 345 346 347 350 348 345 343 343 342 343 341 347 345 346 346 343 341 342 346 347 349 347
347 349 350 350 351 351 352 352 353 353 352 351 348 342 344 343 344 345 344 344 344 344 344 345 344 343 343 342 342 342 335 338 341 346 344 343 344 340 342 349 348 349 348
348 347 346 349 351 350 351 350 352 352 352 350 348 346 341 339 342 342 342 343 343 343 342 343 343 343 343 343 343 339 338 340 339 346 347 344 343 341 351 348 349 347 346
348 346 347 347 349 347 348 351 351 352 349 349 348 345 343 341 339 340 339 339 339 339 339 340 340 342 343 344 344 344 342 341 340 343 346 346 345 335 349 347 343 347 345
349 345 340 343 346 346 345 350 348 348 345 344 341 337 336 336 335 336 340 336 337 340 340 340 346 347 345 349 349 348 347 346 344 341 343 346 345 336 342 343 339 342 345
340 342 345 337 335 343 339 338 336 337 341 341 341 342 342 343 344 344 338 337 340 334 338 345 340 341 344 347 347 347 348 349 348 346 345 344 344 335 337 341 341 340 344
342 347 346 340 330 335 333 332 336 341 343 347 349 350 349 348 348 342 340 344 340 334 337 335 340 346 345 347 347 347 347 346 347 347 346 344 340 338 336 338 341 341 339
346 348 347 339 333 330 331 334 338 342 345 344 348 351 349 349 349 345 339 338 335 337 336 337 342 346 349 349 346 348 346 347 347 346 346 343 342 338 336 339 340 341 340
346 348 344 338 332 334 336 339 343 347 350 350 343 348 349 343 342 341 342 340 337 338 339 343 345 348 349 347 349 344 346 345 346 347 347 346 343 342 336 338 341 340 340
346 348 342 336 334 336 340 342 344 347 349 353 351 346 341 341 343 342 337 340 342 343 345 346 347 346 346 346 349 348 347 347 346 346 347 346 346 346 340 338 340 343 343
346 348 342 342 337 338 339 340 341 342 347 351 352 341 343 346 347 346 344 345 347 345 346 345 346 345 344 347 350 346 346 345 345 345 345 346 346 346 346 343 341 343 344
344 346 343 343 342 338 345 350 350 347 348 352 353 349 350 350 349 346 346 346 348 345 345 348 349 349 349 346 348 346 346 344 344 344 347 348 349 348 347 346 344 347 346
344 341 341 342 342 345 349 349 348 349 350 347 351 352 350 349 349 348 348 348 348 347 350 351 350 349 348 345 345 346 344 342 344 345 346 344 346 348 349 349 348 344 345
343 342 342 343 345 348 347 345 347 347 345 347 347 348 348 351 350 350 349 350 350 349 350 344 344 348 346 344 344 344 347 342 332 339 338 333 336 339 347 351 351 348 347
343 343 343 344 344 345 346 342 345 346 345 348 347 346 342 348 350 349 351 351 350 348 342 341 346 346 346 345 344 345 342 344 330 325 324 327 328 331 341 350 349 348 349
342 344 344 343 341 341 342 344 344 344 349 352 353 351 347 347 352 349 350 350 350 346 347 348 348 346 345 345 344 343 341 343 341 338 326 333 332 342 339 345 349 349 349
342 342 343 343 343 343 342 341 344 343 348 349 350 352 352 352 351 350 350 349 348 349 349 348 347 346 345 345 341 341 345 344 338 338 324 336 342 340 332 329 327 327 327
342 342 343 344 345 344 343 344 344 343 344 346 349 351 350 348 350 349 349 348 348 348 346 345 343 343 343 343 340 334 327 327 338 337 328 322 332 328 326 328 328 327 324
343 342 342 344 345 345 345 343 345 347 348 349 348 349 347 346 345 344 343 345 345 344 342 339 336 336 331 329 327 329 327 323 323 323 326 323 323 324 323 322 322 323 323

GFSSE_925_thetae_333.txt.gz
Theta_e
348 352 350 352 351 350 353 353 353 350 349 347 343 342 352 352 351 352 352 352 350 350 349 347 346 347 343 350 353 352 348 348 351 347 348 346 344 348 351 351 349 352 351
349 352 350 351 352 352 352 353 352 352 346 344 343 349 352 353 352 352 350 352 353 352 352 353 352 352 351 352 352 352 351 347 345 346 348 350 349 349 350 351 350 352 351
351 353 351 350 352 351 351 351 350 352 352 351 350 352 352 352 352 353 352 353 353 353 352 352 351 350 349 350 349 351 350 345 342 342 345 349 350 348 351 351 351 349 350
352 353 351 348 351 351 348 348 351 351 352 349 349 351 352 353 353 352 353 352 353 351 352 352 352 350 345 344 342 344 343 342 342 343 348 349 349 351 350 350 351 348 349
351 351 352 348 348 347 345 347 350 352 352 350 351 352 353 352 353 353 354 352 352 352 353 352 352 348 342 343 343 344 344 343 339 344 347 349 348 350 351 350 344 347 347
351 351 350 348 348 348 348 347 350 351 350 353 349 352 353 353 351 352 353 353 352 352 352 351 351 347 342 343 345 345 346 345 346 346 344 347 348 348 351 351 351 346 339
351 352 352 349 348 346 346 351 347 347 351 352 352 354 353 351 352 353 353 350 351 352 351 349 346 341 341 343 346 346 346 348 352 351 347 344 346 344 350 351 347 346 345
350 351 352 349 347 350 348 350 348 347 352 351 352 353 352 352 351 349 349 352 350 345 342 341 341 342 343 344 344 343 343 341 349 352 351 347 341 344 343 344 348 344 341
350 351 351 351 354 349 347 348 350 348 349 352 347 350 350 350 347 347 349 345 344 343 342 342 342 342 342 342 342 343 338 340 344 349 349 348 342 337 348 347 345 345 340
350 350 351 352 351 352 351 349 350 351 350 345 347 350 348 347 347 345 344 342 342 342 341 340 340 340 341 342 342 342 339 342 343 347 348 349 344 339 339 347 344 343 344
350 349 349 351 352 352 352 351 349 351 350 338 346 347 344 348 348 348 346 342 342 342 342 342 341 342 343 345 344 344 346 350 343 345 349 346 344 343 340 344 347 347 347
348 349 348 349 350 350 351 351 351 353 350 345 346 347 347 346 346 347 344 340 340 341 343 345 342 345 345 349 349 348 353 352 349 346 346 345 345 344 338 345 347 346 346
347 348 348 349 350 348 350 351 352 352 346 345 338 340 338 342 341 344 343 344 345 338 341 345 340 340 343 347 347 348 349 352 351 350 348 344 345 345 341 339 346 344 340
346 346 346 347 349 348 348 349 351 349 344 344 343 336 335 337 337 339 344 342 339 335 337 337 345 345 348 349 347 347 351 351 351 351 350 345 343 344 345 338 339 342 341
345 345 344 345 348 349 348 348 348 344 343 343 340 335 335 338 338 341 343 341 343 341 336 336 339 344 347 350 348 348 349 350 349 347 349 346 345 343 341 341 339 341 341
344 345 343 342 343 347 345 342 342 343 346 344 346 346 343 342 342 344 344 341 338 339 337 338 342 344 346 347 346 348 349 350 351 352 351 350 346 346 343 340 339 340 341
344 344 346 342 340 333 338 338 343 345 346 347 347 347 349 349 349 348 348 343 342 338 339 344 345 346 346 345 345 348 347 348 348 348 349 350 351 347 346 343 339 338 340
345 345 346 342 340 330 331 336 341 341 344 347 349 346 344 347 347 346 344 342 340 340 344 346 349 349 347 351 351 351 347 346 345 346 349 351 351 351 350 346 344 339 338
344 347 348 345 341 336 335 340 341 343 346 348 348 351 350 344 343 342 346 346 340 343 348 348 352 350 353 351 348 349 348 347 345 347 346 344 348 350 351 350 346 345 340
345 345 347 345 343 333 338 338 340 342 342 342 344 345 349 350 342 342 346 347 346 344 349 351 352 351 348 347 346 346 348 339 337 339 335 335 337 344 350 352 352 354 345
346 344 346 343 343 340 341 342 344 345 350 349 345 346 348 350 350 346 349 352 350 348 348 346 346 345 348 348 347 346 348 335 333 334 334 340 339 346 350 353 353 356 354
345 346 345 342 337 339 342 344 347 350 350 350 349 346 348 348 350 351 350 351 351 351 348 346 346 343 343 349 348 348 350 341 335 337 339 341 344 344 345 346 348 349 350
343 345 344 343 341 338 340 344 345 347 348 349 347 347 347 346 345 347 345 347 348 346 346 344 344 344 345 346 346 346 352 352 338 335 334 336 337 338 335 334 341 345 345
342 344 344 343 344 341 343 344 345 348 350 350 351 349 349 349 350 349 348 348 343 345 343 345 346 347 347 348 342 342 343 345 342 336 328 328 331 330 328 327 327 328 329
342 343 343 343 346 346 344 344 346 349 349 352 347 349 347 347 346 345 346 347 342 342 343 346 343 343 342 342 342 336 333 339 342 339 334 327 323 321 323 325 324 326 329
343 343 344 342 344 346 344 344 347 349 349 346 348 347 343 343 343 343 344 345 345 344 344 340 339 338 338 334 334 333 330 328 336 331 333 329 326 325 321 319 321 319 325

GFSSE_925_thetae_339.txt.gz
Theta_e
349 350 351 354 354 354 355 353 354 345 345 344 345 350 351 351 353 353 350 345 344 348 347 349 349 351 354 353 353 353 352 350 345 344 337 337 342 345 345 349 350 353 353
349 351 349 351 355 355 354 354 354 346 347 344 342 350 352 353 352 353 353 353 354 353 351 349 345 344 348 352 354 354 353 350 345 342 338 342 347 344 347 348 348 352 352
350 351 352 351 352 354 353 351 354 354 350 346 347 352 353 352 352 346 352 354 354 354 354 354 351 353 353 352 352 353 350 343 346 347 349 349 350 347 348 349 335 351 350
350 351 351 348 350 354 352 349 352 353 353 350 353 351 349 349 353 354 353 354 354 353 353 351 350 350 352 352 352 350 347 341 345 349 351 350 349 347 347 347 348 352 350
350 351 353 349 352 353 350 351 354 354 351 352 349 348 348 353 353 353 354 353 352 354 353 353 352 350 346 348 350 345 340 341 347 351 349 348 347 349 349 346 346 350 348
348 352 350 353 353 354 351 350 351 350 352 350 348 348 354 354 353 354 353 354 352 353 353 353 351 350 350 347 345 345 344 342 346 349 343 346 347 346 348 350 348 348 348
347 352 351 351 353 353 349 353 349 351 352 352 354 353 353 352 354 354 355 354 350 353 353 353 352 350 347 347 348 347 346 348 352 344 345 348 349 340 346 349 352 348 348
347 347 350 350 351 350 351 351 347 348 354 354 352 353 352 353 354 354 354 352 353 352 352 353 352 351 351 350 346 343 341 346 348 346 344 348 337 341 353 352 344 341 347
345 347 349 351 353 353 353 351 353 352 353 351 354 354 352 355 355 354 351 347 351 350 349 350 350 349 351 351 347 342 339 341 347 348 346 348 335 336 349 352 349 349 350
344 345 347 348 348 350 350 353 353 353 354 354 354 353 354 354 353 348 342 342 345 345 346 346 349 348 346 344 343 343 341 348 351 349 350 348 341 332 342 345 350 349 344
344 344 346 347 349 350 349 351 350 352 354 352 352 353 350 349 349 343 353 346 342 343 343 342 343 344 343 345 349 346 346 357 348 347 351 346 342 334 342 349 350 350 349
344 344 345 346 347 347 346 351 351 351 349 347 346 348 350 348 349 351 350 342 340 340 340 342 344 344 345 352 355 351 352 354 350 346 352 346 344 339 336 341 342 342 347
343 343 344 344 346 346 346 348 347 348 346 345 348 350 350 349 350 348 349 346 349 351 349 351 350 350 349 351 354 353 353 349 351 349 350 343 343 343 338 340 342 346 343
343 343 343 344 344 346 347 343 345 346 347 344 347 351 350 350 349 349 348 349 354 348 347 347 346 351 352 354 352 350 350 350 344 351 350 345 343 343 344 339 339 346 345
342 342 342 345 345 346 349 345 347 347 346 342 345 349 349 347 348 349 349 350 350 349 349 347 346 350 353 352 353 351 350 349 350 348 355 350 346 344 343 345 341 341 343
340 341 341 345 347 347 346 346 346 346 343 343 343 345 349 348 348 349 351 351 349 349 348 348 350 352 353 352 350 351 347 348 347 347 348 351 351 349 345 343 343 342 341
339 339 340 344 347 348 347 348 347 345 343 343 343 345 348 350 351 352 351 351 350 350 351 351 354 353 353 349 349 349 346 348 345 349 347 349 352 350 350 346 344 341 341
339 339 338 338 343 346 347 348 344 342 343 343 344 347 351 353 355 356 353 349 350 349 348 351 351 352 352 350 348 342 345 346 348 346 345 349 345 355 354 351 346 344 342
343 340 340 338 338 343 345 344 343 344 346 345 345 346 354 354 354 357 352 350 353 349 350 351 351 352 347 348 346 344 345 347 344 343 346 346 345 347 350 357 350 347 344
346 343 340 341 338 340 341 342 341 346 346 345 344 345 353 352 353 353 350 353 355 352 349 356 354 353 350 349 349 347 346 345 343 343 345 346 348 353 356 357 356 355 349
348 349 342 342 342 342 341 340 343 345 345 346 346 347 351 353 354 356 353 351 353 352 357 355 353 352 350 346 344 345 346 347 343 343 345 348 351 348 346 347 357 354 351
350 349 350 342 344 345 342 341 343 344 344 345 345 347 352 354 354 354 354 351 356 355 355 354 350 347 346 343 344 345 346 349 343 343 343 344 347 346 347 347 351 352 348
350 351 351 350 345 346 342 342 344 345 344 344 345 350 352 355 357 357 358 357 359 351 354 351 349 346 344 342 338 343 347 351 343 341 341 343 343 340 343 345 346 344 341
351 352 352 352 349 348 345 342 345 345 344 342 343 347 357 359 360 356 356 356 356 351 350 348 344 341 338 338 338 339 343 344 346 348 338 340 338 338 337 340 342 339 339
350 351 353 354 354 350 349 343 346 346 345 344 352 356 357 354 354 353 356 354 353 347 346 345 345 343 342 341 345 340 344 345 346 345 348 336 334 335 333 334 338 340 338
350 350 351 355 357 354 354 350 350 349 348 352 354 356 352 351 351 351 352 352 351 349 346 344 342 342 345 344 342 342 345 345 342 342 343 341 337 331 330 329 332 334 336

GFSSE_925_thetae_345.txt.gz
Theta_e
348 349 348 349 347 345 346 342 342 346 345 339 339 340 340 341 340 341 341 344 345 346 351 352 353 350 349 349 348 345 345 342 340 339 339 339 346 347 349 351 351 349 346
348 352 352 344 350 350 346 342 344 344 344 344 346 344 345 347 349 347 349 349 351 351 351 350 351 354 353 351 352 351 345 346 344 346 341 346 346 346 347 350 350 339 343
352 350 350 348 349 354 347 345 346 343 343 344 346 352 351 351 346 353 352 352 353 351 350 349 352 353 353 352 347 345 350 349 349 350 343 344 348 343 347 341 346 345 350
347 350 350 351 348 353 351 346 347 347 346 347 345 351 346 345 345 353 353 348 350 351 352 353 350 352 349 347 341 343 344 348 348 348 348 346 349 345 341 342 347 347 347
350 346 346 351 347 353 351 350 348 348 346 347 349 347 348 346 352 350 353 353 353 352 352 349 347 345 342 340 338 342 342 346 344 336 343 348 349 347 342 345 347 344 344
350 344 345 348 353 353 352 353 351 351 350 348 351 348 349 347 353 353 353 354 353 353 353 352 351 346 344 343 340 338 340 345 343 341 346 347 349 346 340 348 350 351 345
351 343 342 347 351 352 351 351 350 347 347 350 350 348 349 349 353 353 353 354 351 350 349 349 348 347 346 346 345 342 343 345 343 346 340 344 344 343 345 348 349 348 345
349 347 343 349 350 349 353 353 353 351 352 353 352 353 353 352 353 352 353 351 347 344 347 346 344 344 347 346 344 341 341 343 347 348 341 348 339 342 348 347 346 346 345
350 347 344 349 350 353 353 353 353 353 352 352 351 352 347 352 354 352 347 343 339 338 338 337 341 344 345 344 342 342 342 343 345 346 345 344 338 344 349 346 344 345 345
348 346 345 347 349 350 351 350 352 352 352 354 354 347 352 353 352 344 339 338 336 336 340 342 341 341 342 348 349 346 346 344 338 344 347 346 343 341 339 339 340 339 339
351 348 345 346 349 349 347 351 348 350 350 354 350 343 354 349 339 340 343 342 340 340 340 341 342 343 348 347 340 338 343 342 340 341 346 347 341 340 342 342 340 339 338
349 351 350 347 348 350 349 347 350 350 348 351 348 338 345 349 347 348 350 347 339 340 341 344 348 346 350 346 341 336 341 340 334 335 346 346 343 339 339 342 339 340 341
348 351 349 348 350 350 350 342 343 345 344 345 345 341 349 352 352 351 353 343 339 346 349 349 347 350 351 345 337 339 338 340 340 341 348 345 339 337 339 338 335 337 340
347 348 348 347 349 350 348 346 349 348 348 347 346 348 346 350 351 351 353 347 352 351 346 347 348 351 349 343 338 338 344 340 343 341 341 343 340 338 335 336 335 336 336
342 345 346 348 348 350 348 346 351 351 349 347 345 344 349 352 351 350 350 351 352 351 348 349 349 351 349 345 347 344 345 343 341 339 338 340 343 341 337 336 336 337 339
342 342 348 348 349 348 347 346 350 351 347 346 346 342 351 349 350 348 347 348 351 349 348 347 347 347 350 348 346 346 340 344 342 343 338 337 342 344 343 340 338 339 343
343 343 348 346 347 350 348 348 348 348 346 347 346 344 348 347 349 348 350 345 350 350 350 347 350 353 350 349 345 348 345 347 346 347 345 347 342 345 345 344 343 341 345
343 343 346 346 345 347 348 345 347 348 345 343 348 345 343 346 352 349 351 352 353 351 348 348 351 349 350 348 345 343 345 344 345 346 348 347 348 346 345 348 347 345 345
342 342 345 346 346 346 349 347 346 346 346 342 343 346 344 343 347 354 350 353 352 349 352 351 348 350 347 344 347 346 343 341 344 345 348 351 351 350 351 352 348 337 340
340 340 343 345 346 345 348 347 346 346 345 344 343 346 344 346 340 349 354 356 353 351 353 350 349 348 347 345 343 341 341 341 341 345 346 348 347 346 347 351 347 334 343
339 339 341 343 346 346 348 347 346 346 344 344 344 344 348 348 348 354 352 352 355 352 352 349 351 351 349 345 342 342 344 338 339 343 348 349 348 346 342 343 349 348 346
341 339 341 339 343 346 346 346 347 344 344 345 345 346 345 349 351 352 353 352 353 351 349 344 339 349 347 346 342 343 338 343 341 337 341 343 346 343 342 339 344 348 350
342 340 340 340 338 345 345 344 344 344 342 346 344 346 347 354 354 353 353 352 349 344 345 343 338 347 346 345 338 341 340 341 341 341 341 341 343 343 342 339 342 343 345
344 342 340 341 339 343 345 343 340 342 347 348 348 346 352 354 353 353 352 353 348 342 339 344 349 349 341 339 338 338 340 342 339 341 339 339 338 343 343 339 340 341 341
348 344 342 341 343 344 342 342 341 340 342 348 350 351 352 352 353 349 353 350 349 349 349 349 348 345 340 340 338 341 340 339 339 340 342 340 336 336 336 341 337 336 334
351 350 344 345 344 344 343 343 344 346 350 351 351 350 349 349 352 351 350 349 349 350 350 349 349 348 347 346 346 344 342 341 341 342 341 338 338 334 334 338 338 336 334